Ridgecrest, CA

8:39 PM PST on February 20, 2017 (GMT -0800)
China Lake NAWS

Weather History for KNID - September, 2012

Change the Weather History Date:

Wednesday, September 5, 2012

  Actual Average Record
Temperature  
Mean Temperature 82 °F -  
Max Temperature 93 °F 94 °F 102 °F (2006)
Min Temperature 71 °F 66 °F 52 °F (2000)
Cooling Degree Days 17    
Growing Degree Days 32 (Base 50)    
Moisture  
Dew Point 45 °F    
Average Humidity 27    
Maximum Humidity 39    
Minimum Humidity 15    
Precipitation  
Precipitation 0.00 in - - ()
Sea Level Pressure  
Sea Level Pressure 29.90 in    
Wind  
Wind Speed 9 mph (SSW)    
Max Wind Speed 20 mph    
Max Gust Speed 29 mph    
Visibility 10 miles    
Events Rain    
Averages and records for this station are not official NWS values.
T = Trace of Precipitation, MM = Missing Value Source: NWS Daily Summary

Daily Weather History Graph

Daily Weather History Graph

Search for Another Location

Airport or City:

Trip Planner

Search our weather history database for the weather conditions in past years. The results will help you decide how hot, cold, wet, or windy it might be!

Date:

Astronomy

Sep. 05, 2012 Rise Set
Actual Time 6:26 AM PDT 7:11 PM PDT
Civil Twilight 6:00 AM PDT 7:37 PM PDT
Nautical Twilight 5:29 AM PDT 8:07 PM PDT
Astronomical Twilight 4:58 AM PDT 8:39 PM PDT
Moon 9:57 PM PDT (9/5) 11:22 AM PDT (9/5)
Length of Visible Light 13h 37m
Length of Day
12h 45m
Waning Gibbous, 75% of the Moon is Illuminated
Sep 5
Waning Gibbous
Sep 8
Last Quarter
Sep 15
New
Sep 22
First Quarter
Sep 29
Full

Hourly Weather History & Observations

Time (PDT) Temp. Heat Index Dew Point Humidity Pressure Visibility Wind Dir Wind Speed Gust Speed Precip Events Conditions
12:56 AM 84.0 °F - 37.9 °F 19% 29.88 in 10.0 mi South 12.7 mph - N/A   Clear
1:56 AM 82.0 °F - 37.9 °F 21% 29.87 in 10.0 mi South 11.5 mph - N/A   Clear
2:56 AM 78.1 °F - 37.0 °F 23% 29.87 in 10.0 mi WSW 8.1 mph - N/A   Clear
3:56 AM 77.0 °F - 37.0 °F 24% 29.88 in 10.0 mi SSW 8.1 mph - N/A   Clear
4:56 AM 73.9 °F - 37.0 °F 26% 29.88 in 10.0 mi Calm Calm - N/A   Clear
5:56 AM 73.9 °F - 37.0 °F 26% 29.89 in 10.0 mi Calm Calm - N/A   Mostly Cloudy
6:56 AM 71.1 °F - 37.9 °F 30% 29.91 in 10.0 mi South 4.6 mph - N/A   Mostly Cloudy
7:56 AM 75.0 °F - 37.9 °F 26% 29.92 in 10.0 mi NW 3.5 mph - N/A   Mostly Cloudy
8:56 AM 79.0 °F - 39.0 °F 24% 29.93 in 10.0 mi Calm Calm - N/A   Mostly Cloudy
9:56 AM 84.0 °F - 39.0 °F 20% 29.93 in 10.0 mi Calm Calm - N/A   Mostly Cloudy
10:56 AM 90.0 °F - 39.0 °F 17% 29.92 in 10.0 mi NNE 3.5 mph - N/A   Mostly Cloudy
11:56 AM 93.0 °F - 37.9 °F 15% 29.91 in 10.0 mi South 8.1 mph - N/A   Mostly Cloudy
12:56 PM 93.0 °F - 37.9 °F 15% 29.90 in 10.0 mi SSE 11.5 mph - N/A   Overcast
1:18 PM 93.2 °F - 42.8 °F 17% 29.97 in 10.0 mi SSW 19.6 mph 28.8 mph N/A   Overcast
1:56 PM 91.0 °F - 48.9 °F 23% 29.91 in 10.0 mi SW 17.3 mph 26.5 mph N/A   Overcast
2:56 PM 88.0 °F 86.1 °F 55.0 °F 32% 29.92 in 10.0 mi SSW 13.8 mph - 0.00 in Rain Light Rain
3:56 PM 88.0 °F 86.1 °F 55.0 °F 32% 29.91 in 10.0 mi SSW 8.1 mph - 0.00 in   Overcast
4:56 PM 88.0 °F 85.7 °F 53.1 °F 30% 29.90 in 10.0 mi SSW 9.2 mph - N/A   Overcast
5:56 PM 87.1 °F 84.9 °F 53.1 °F 31% 29.88 in 10.0 mi South 9.2 mph - N/A   Overcast
6:56 PM 84.9 °F 83.6 °F 55.0 °F 36% 29.88 in 10.0 mi South 11.5 mph - N/A   Mostly Cloudy
7:56 PM 84.9 °F 83.6 °F 55.0 °F 36% 29.88 in 10.0 mi South 11.5 mph - N/A   Mostly Cloudy
8:56 PM 84.0 °F 82.9 °F 55.0 °F 37% 29.88 in 10.0 mi South 9.2 mph - N/A   Mostly Cloudy
9:56 PM 82.0 °F 81.4 °F 55.0 °F 39% 29.87 in 10.0 mi South 11.5 mph - N/A   Clear
10:56 PM 81.0 °F - 52.0 °F 36% 29.87 in 10.0 mi SSW 8.1 mph - N/A   Mostly Cloudy
11:56 PM 81.0 °F - 52.0 °F 36% 29.86 in 10.0 mi South 9.2 mph - N/A   Clear